Find Starlink 32908

NORAD ID: 63084 Int'l Des: 2025-037 Owner: SPXS Country: US Constellation: starlink operational
LEOCIRCULAR

Live Position

Loading 3D Globe...

About Starlink 32908

Description loading...

Upcoming Passes

Passes for default location (London). Set your location on the main map for personalized predictions.

Altitude History

Loading altitude history...

Two-Line Element Set

1 63084U 25037H 26122.37297884 .00001911 00000-0 16788-3 0 9994
2 63084 70.0019 219.0808 0002786 272.2694 87.8146 14.98334862 66502
Epoch: May 2, 2026 • Age: 7 hours

Current Status

Altitude 574.2 km
Velocity 7.57 km/s
Sub-Earth Point 6.06°N, 66.45°W
Launch Date Feb 23, 2025
Age 1.1 years
Type internet

Technical Details

Classification Payload
Mass 730.00 kg
Dry Mass 700.00 kg
Total Mass 730.00 kg
Length 0.30 m
Diameter 4.10 m
Span 29.00 m
Shape Box + pan
Manufacturer SPXS
Bus Type Starlink V2M
Phase Status In Orbit
Owner/State SPXS/US

Most Searched